Wind_Speed
4 7 9 16 23 25 28 29 29 22 25 27 29 26 31 33 32 33 33 32 31 28 28 31 27 25 22 22 25 22 20 18 18 17 9 6 7 8 9 13 17 19 18
6 10 12 9 4 13 25 30 32 27 26 27 32 25 30 31 35 32 31 33 33 30 29 31 30 28 25 25 27 26 22 16 21 10 9 2 4 7 10 12 16 16 19
5 7 11 13 11 6 6 17 26 27 26 25 25 21 25 20 23 30 31 34 35 31 31 31 32 30 27 28 29 28 28 17 21 14 7 2 4 4 9 13 14 16 20
6 8 11 12 13 12 4 11 21 24 26 26 27 28 28 21 20 32 33 36 35 35 33 33 32 31 30 29 31 29 30 26 21 18 13 7 5 3 3 8 14 18 18
9 10 11 12 13 14 11 3 11 23 23 27 27 27 26 26 24 28 29 32 34 33 34 35 34 33 33 32 33 32 31 30 26 21 19 11 7 7 2 3 7 14 18
11 11 13 13 14 14 13 8 3 8 19 27 31 28 26 25 25 26 27 29 35 35 35 33 35 35 35 35 34 34 33 33 30 31 28 23 11 7 4 2 4 11 11
12 12 13 16 17 18 17 13 9 5 1 21 31 30 26 31 33 31 27 27 29 32 36 37 36 34 37 36 35 36 36 35 35 33 34 32 29 22 16 6 3 5 9
13 13 14 16 17 17 18 16 14 10 7 1 20 31 25 27 31 32 31 31 33 36 39 37 37 37 37 37 34 33 36 38 38 38 36 35 34 32 27 18 9 3 5
14 14 17 19 18 19 19 18 16 12 10 8 1 20 30 25 26 29 30 31 31 32 34 37 38 37 36 37 36 35 37 36 38 40 40 39 38 36 32 30 25 16 5
15 14 17 20 20 20 19 18 17 15 13 10 5 3 24 26 26 25 27 28 28 29 30 31 33 34 34 35 35 33 35 35 38 37 38 39 38 37 36 31 29 26 19
14 14 17 20 20 21 23 22 23 19 18 13 9 3 10 21 23 24 24 24 24 25 25 26 28 31 32 34 34 33 30 33 31 34 36 38 36 38 38 37 32 29 26
14 13 19 21 22 23 24 23 23 22 21 16 11 7 3 13 18 21 24 23 24 24 24 23 25 27 29 31 34 35 31 35 35 35 33 37 36 36 37 38 36 32 30
16 15 19 21 23 24 24 23 23 24 23 19 14 11 8 7 10 20 21 22 22 22 22 24 25 25 27 29 31 32 32 33 36 33 35 35 31 33 33 33 31 35 32
17 16 15 20 23 24 24 24 24 24 24 21 18 15 13 6 4 9 15 16 19 21 21 23 24 26 27 28 30 31 31 30 32 31 33 33 32 33 32 31 30 32 27
19 17 16 20 23 26 27 26 25 25 24 21 23 22 15 10 3 5 12 14 15 16 18 19 20 21 23 25 27 28 28 30 31 30 31 33 30 28 28 25 28 28 25
18 18 19 24 24 26 27 26 26 26 25 24 24 24 20 14 10 4 6 14 15 16 15 15 16 16 19 20 20 21 23 25 28 27 30 29 26 26 24 22 20 22 25
15 16 17 22 25 26 27 26 26 26 25 25 26 25 23 22 17 12 5 7 14 15 16 14 14 14 14 15 15 16 19 20 22 25 26 26 25 25 23 21 19 19 18
15 16 22 24 26 28 30 28 27 25 25 27 28 28 27 27 24 18 14 8 6 14 14 14 14 13 14 15 14 15 18 18 21 20 24 23 24 22 20 20 21 20 21
18 19 22 22 25 29 30 26 26 26 26 27 28 29 29 29 28 26 20 15 12 12 13 12 13 12 11 13 15 15 17 17 15 15 16 17 19 20 19 19 20 21 23
21 22 24 23 26 30 30 26 27 27 28 27 27 28 29 29 30 28 25 18 19 18 17 20 18 15 11 10 14 15 16 15 14 13 15 15 16 18 19 20 18 19 22
20 24 24 23 25 28 28 24 25 28 29 27 27 29 30 29 30 29 29 25 24 20 20 22 23 25 24 15 11 11 12 12 12 10 12 12 13 16 18 20 21 21 20
21 23 23 23 25 28 26 24 25 28 28 29 26 29 29 30 30 30 30 29 27 25 23 23 21 23 22 23 20 13 12 11 11 9 8 8 9 10 11 11 10 9 9
19 20 21 22 25 29 26 24 27 29 29 29 27 28 28 29 29 30 27 26 25 24 22 21 20 22 21 20 19 19 14 11 9 7 5 4 4 6 7 7 9 8 8
19 18 19 21 22 27 26 26 27 27 26 26 27 26 26 27 27 28 27 24 23 21 21 20 19 21 25 23 17 15 13 11 7 5 6 5 5 5 7 8 7 5 6
17 16 17 20 21 25 27 27 26 27 27 25 25 25 24 27 25 24 22 24 23 22 19 19 19 18 18 19 15 13 10 9 6 2 3 6 7 8 7 6 4 3 3
17 17 17 19 23 25 27 28 26 26 25 23 21 21 22 25 24 22 21 17 16 16 17 17 19 18 16 17 15 15 9 4 5 3 3 2 0 3 5 5 5 5 4
Wind_Direction
47 8 315 275 255 241 226 220 211 204 201 195 193 186 189 198 203 206 206 201 200 197 197 198 196 195 193 189 185 181 181 172 173 163 146 162 191 209 204 204 207 197 194
50 23 10 3 348 236 228 216 213 199 197 196 200 193 196 201 209 208 208 206 202 199 195 198 200 199 195 191 188 187 175 174 176 168 161 153 214 225 226 219 216 210 207
63 35 20 11 21 42 210 215 206 200 202 195 194 189 187 190 191 205 208 209 206 202 200 199 202 203 201 195 192 192 189 170 183 183 171 150 218 179 219 218 212 218 209
48 44 30 13 15 8 9 210 205 209 207 197 191 187 182 177 193 202 208 211 207 206 203 205 204 206 207 204 198 197 197 189 183 191 196 188 166 184 190 220 216 227 219
50 35 29 13 10 10 10 328 221 206 209 204 199 193 193 195 197 198 202 209 208 210 209 209 208 208 211 210 206 201 200 201 196 192 193 193 181 166 151 175 202 222 222
48 34 30 20 14 9 13 13 302 221 219 210 206 202 195 188 188 193 196 202 210 212 214 213 214 213 215 215 212 213 210 208 210 210 212 202 188 186 168 161 210 224 227
39 29 24 18 12 10 6 9 12 356 279 207 210 206 200 194 190 190 192 193 201 207 214 212 215 215 219 219 218 218 218 218 217 219 217 221 218 220 212 195 179 221 222
16 27 20 17 13 10 7 8 9 3 2 10 203 211 211 202 200 207 203 204 205 211 214 212 215 218 221 221 220 223 226 223 224 225 226 227 227 229 229 221 182 195 236
8 13 16 17 13 12 11 7 7 6 3 353 231 211 218 215 209 213 215 215 214 215 219 219 218 220 222 222 222 224 226 228 229 229 228 231 235 232 235 236 232 228 238
8 7 10 11 11 13 11 13 14 10 4 359 350 218 216 222 224 221 215 214 218 218 219 219 219 217 219 222 221 220 226 227 228 227 230 232 234 238 234 236 240 245 239
7 4 5 4 9 13 14 12 13 11 12 10 2 0 204 220 221 223 222 221 219 216 217 219 219 218 218 220 220 223 220 223 225 228 232 236 233 239 237 236 237 238 237
5 3 4 3 8 10 11 10 9 11 10 10 7 17 135 203 214 219 223 220 219 219 216 217 218 221 225 226 223 224 221 228 226 234 231 235 233 235 236 236 233 235 237
6 2 6 6 4 5 6 6 8 8 12 13 18 23 63 112 178 215 216 215 208 211 212 220 220 223 227 229 229 230 225 228 232 228 231 238 229 228 229 231 228 233 236
6 3 4 4 2 1 1 3 7 9 11 17 21 22 29 35 129 172 198 208 203 206 211 218 226 229 232 232 235 232 227 225 230 228 236 235 230 233 232 234 236 237 231
5 0 1 0 0 0 358 1 5 9 12 16 22 20 23 23 358 156 180 206 200 203 207 211 216 223 227 231 233 232 230 226 229 233 239 239 241 242 236 236 239 235 227
359 356 359 359 360 359 356 356 2 6 15 20 18 22 29 22 26 60 166 187 197 205 200 199 201 205 213 218 221 225 227 229 230 236 238 234 239 238 230 229 237 242 232
353 353 354 354 356 355 354 356 358 10 17 20 19 18 21 27 35 37 51 156 175 184 188 190 194 204 212 214 211 217 225 227 228 225 231 229 234 233 232 228 234 241 243
349 351 351 350 355 359 359 360 8 11 17 19 18 18 21 24 33 38 38 62 140 169 183 189 195 204 216 214 209 207 214 221 226 230 238 236 236 227 220 218 221 229 239
348 350 349 349 359 4 360 1 9 11 15 15 17 17 26 26 23 28 34 44 72 106 131 143 155 172 195 202 200 198 206 213 217 217 223 226 226 222 218 221 223 226 235
354 353 351 356 4 4 6 4 8 11 7 5 16 23 31 31 27 26 34 42 67 68 88 107 103 108 115 169 188 195 204 210 215 215 216 216 218 218 217 223 219 223 235
355 358 359 1 0 3 6 7 8 8 7 11 21 29 34 32 36 33 38 45 58 67 57 74 83 83 80 89 116 148 165 180 178 187 197 210 220 224 224 227 234 241 245
357 1 357 358 1 9 6 3 6 10 24 18 19 29 35 38 39 35 35 39 48 42 44 49 52 69 72 66 66 100 116 129 141 142 158 174 184 189 197 202 209 217 223
357 360 359 354 2 13 10 1 0 18 24 22 16 22 31 42 43 36 26 30 33 37 29 29 33 36 47 57 59 66 76 93 110 124 134 151 167 189 190 189 196 204 211
359 359 3 359 357 8 11 11 16 24 23 20 16 17 21 29 39 40 31 27 28 29 29 23 25 26 33 29 30 41 55 63 71 107 134 149 154 164 159 164 173 172 188
357 1 5 360 357 7 11 16 23 25 22 20 15 19 20 24 22 37 34 30 31 28 25 29 30 22 19 18 12 7 20 32 27 38 136 147 151 162 161 157 154 159 169
356 360 5 3 5 12 14 17 23 26 23 18 12 16 18 26 21 16 22 39 34 30 31 30 28 25 21 13 11 7 358 9 21 341 4 15 53 202 196 196 193 202 200
Height
757 757 757 755 756 759 762 765 769 772 775 779 784 789 792 799 803 808 813 819 822 827 832 838 842 845 848 851 856 860 864 867 870 873 877 879 881 883 885 886 888 891 893
755 756 757 755 752 754 757 759 763 767 770 774 778 782 788 794 798 804 810 814 818 823 828 833 838 842 845 849 852 856 861 865 868 871 875 880 883 882 883 885 886 889 891
757 757 757 757 754 752 754 757 759 763 766 770 774 779 785 791 796 801 805 810 814 818 824 829 834 838 842 845 849 853 857 861 866 869 872 877 877 880 881 883 884 887 889
761 758 758 759 757 754 752 753 756 760 763 766 770 773 777 784 789 794 798 806 810 814 819 825 829 834 838 841 845 850 854 857 862 867 868 871 873 875 879 880 881 884 885
762 759 759 760 759 755 753 752 752 755 759 762 766 770 774 779 784 790 795 801 805 811 815 820 824 829 834 837 841 846 850 854 857 861 865 869 871 872 875 876 879 881 882
763 764 763 762 761 758 754 753 752 754 756 758 762 766 769 774 779 785 790 795 799 804 809 814 819 824 829 832 836 841 846 849 853 857 860 862 867 870 872 875 876 877 880
769 769 766 765 764 760 757 754 752 752 752 755 758 762 766 768 771 777 784 789 793 798 802 808 814 818 823 827 832 836 840 844 848 852 855 859 861 865 868 871 874 875 877
778 775 772 769 767 764 760 756 754 752 751 751 754 757 762 765 766 771 777 781 786 790 796 801 807 812 817 822 826 830 835 839 842 846 850 853 856 860 863 866 870 874 875
787 781 776 773 770 766 763 760 756 753 751 749 750 753 757 761 764 767 772 776 780 785 790 795 801 806 811 815 820 824 828 832 836 839 844 846 850 854 857 860 864 867 869
793 786 782 778 774 769 766 763 759 755 753 750 749 750 753 757 761 765 768 772 776 781 785 790 795 801 805 810 814 818 822 825 829 833 837 840 843 847 851 854 857 861 864
799 794 788 783 778 772 768 764 760 757 753 751 749 748 750 753 757 761 765 769 773 777 781 786 790 795 800 804 808 812 816 820 823 826 829 832 837 839 844 847 850 854 857
805 801 794 788 781 776 772 768 764 761 757 753 750 748 747 749 753 757 761 765 768 773 777 781 785 789 794 798 801 804 808 812 816 818 823 825 829 831 835 839 843 846 850
811 806 800 793 787 781 777 773 768 764 760 756 752 750 747 747 750 754 758 761 763 768 772 776 780 784 788 791 795 798 802 805 808 811 814 817 823 825 827 831 836 839 843
818 814 807 800 794 788 782 777 771 767 763 759 755 752 749 749 750 752 755 758 760 763 767 771 775 778 782 785 788 791 795 798 801 805 808 810 814 818 821 825 828 832 835
824 821 813 807 800 793 787 781 776 771 767 762 758 755 752 750 752 749 752 756 758 760 764 766 769 772 775 778 781 785 788 792 795 798 802 805 809 811 815 818 822 825 829
833 828 819 813 806 799 793 787 780 775 770 765 761 758 755 754 751 749 750 753 755 757 760 762 764 767 769 773 776 779 782 785 789 792 796 799 802 806 809 812 816 820 822
839 833 825 819 812 805 799 792 786 780 774 769 766 762 760 755 751 751 750 749 751 755 757 759 761 764 766 769 771 774 777 780 783 787 790 794 796 801 804 807 810 813 816
843 837 830 825 818 809 803 797 791 785 779 775 770 765 761 757 753 753 752 749 751 752 755 756 758 761 763 766 768 771 774 777 780 782 786 788 792 794 799 801 805 806 809
848 842 836 830 820 814 809 803 797 791 785 781 775 771 766 762 760 756 754 753 751 750 752 753 755 757 760 762 765 768 771 774 777 779 782 785 788 791 795 797 799 801 804
850 845 838 831 824 819 814 808 801 795 791 787 780 778 771 768 764 762 758 758 753 753 755 754 755 757 759 761 763 765 768 771 774 776 778 782 784 787 790 792 794 796 797
853 847 840 835 831 825 820 815 810 803 799 793 788 782 777 773 770 767 764 761 757 759 759 759 758 759 760 762 762 764 766 769 772 774 776 778 781 783 785 788 790 792 794
855 850 843 840 836 830 824 821 817 812 804 798 794 789 784 780 777 774 771 769 767 768 766 763 764 762 763 764 765 765 768 769 771 774 776 778 780 781 784 785 787 789 791
860 854 849 845 840 834 830 826 821 813 807 804 800 795 791 787 785 783 781 777 776 775 775 772 770 770 770 767 769 767 769 770 772 774 775 777 779 781 782 784 785 787 788
863 858 854 851 845 840 836 832 825 819 814 810 806 802 797 794 791 788 787 787 786 783 781 780 777 775 773 772 772 773 772 773 775 776 776 778 780 783 783 784 786 785 787
866 862 857 853 850 844 839 835 829 824 818 814 812 808 805 800 798 796 795 794 792 791 789 788 786 783 781 780 780 778 776 777 777 778 778 779 780 782 783 783 784 786 787
867 864 860 857 853 848 843 838 832 828 824 821 819 816 812 807 804 803 801 798 798 797 794 792 789 787 784 783 782 780 778 777 776 778 779 778 779 780 780 782 784 786 787